Location: Betz
(49.1556°N, 2.9558°E)
Time: 03:08:05
(UTC+00:00)

Cosmos 2219 - Pass Details

Date: 18 September 2019
Orbit: 834 x 860 km, 71.1° (Epoch: 15 October)

Event Time Altitude Azimuth Distance (km) Brightness Sun altitude
Rises 20:45:34 0° 230° (SW) 3,426 6.5 -26.5°
Reaches altitude 10° 20:48:10 10° 238° (WSW) 2,494 5.8 -26.8°
Maximum altitude 20:53:34 42° 308° (NW) 1,220 4.4 -27.5°
Drops below altitude 10° 20:59:01 10° 19° (NNE) 2,502 5.9 -28.2°
Sets 21:01:38 0° 26° (NNE) 3,439 6.6 -28.5°
